Location: Nachod
(50.4170°N, 16.1670°E)
Time: 08:54:23
(UTC+01:00)

ISS - Visible Passes

Search period start: 30 November 2023 00:00
Search period end: 10 December 2023 00:00
Orbit: 416 x 417 km, 51.6° (Epoch: 30 November)

Date Brightness Start Highest point End Pass type
(mag) Time Alt. Az. Time Alt. Az. Time Alt. Az.
30 Nov -3.8 17:29:45 10° WNW 17:33:07 85° SSW 17:34:46 28° ESE visible
30 Nov -0.7 19:06:46 10° W 19:07:41 15° W 19:07:41 15° W visible
01 Dec -3.8 16:41:21 10° WNW 16:44:43 81° NNE 16:48:05 10° E visible
01 Dec -2.5 18:18:12 10° W 18:21:19 35° SSW 18:21:30 35° SSW visible
02 Dec -3.0 17:29:41 10° WNW 17:32:57 50° SSW 17:35:26 16° SE visible
02 Dec -0.5 19:07:44 10° WSW 19:08:22 11° WSW 19:08:22 11° WSW visible
03 Dec -3.4 16:41:11 10° WNW 16:44:32 69° SSW 16:47:52 10° ESE visible
03 Dec -1.2 18:18:29 10° W 18:20:51 18° SW 18:22:28 13° S visible
04 Dec -1.6 17:29:37 10° W 17:32:29 26° SW 17:35:20 10° SSE visible
05 Dec -2.2 16:40:54 10° W 16:44:02 37° SSW 16:47:10 10° SE visible
06 Dec -0.5 17:30:05 10° WSW 17:31:40 13° SW 17:33:14 10° SSW visible
07 Dec -0.7 16:40:45 10° W 16:43:13 19° SW 16:45:41 10° S visible
